Wind_Speed
27 24 27 26 26 30 44 39 28 23 20 22 29 21 22 23 24 22 23 23 21 18 15 15 16 16 16 16 18 19 21 23 24 25 27 28 30 32 33 34 35 37 37 37
17 24 22 23 26 24 27 39 32 26 27 20 26 27 20 22 17 19 22 22 20 20 20 20 19 17 18 20 22 24 27 28 29 30 29 30 33 36 37 37 39 39 40 40
23 16 19 20 21 24 33 26 30 29 21 22 20 23 23 21 20 19 20 24 22 20 19 20 20 19 22 24 27 29 31 32 32 34 36 36 38 39 40 41 41 41 42 41
15 12 26 18 16 17 15 28 30 29 22 12 17 6 23 20 13 13 16 15 17 19 21 21 22 24 27 29 31 32 32 32 33 35 37 39 40 41 40 41 40 39 38 38
16 17 22 27 16 13 16 15 18 26 18 13 19 12 31 26 19 20 13 12 15 18 22 23 24 26 29 31 33 34 35 34 34 36 33 32 32 32 34 37 38 37 36 37
20 22 18 18 15 22 19 22 14 15 15 3 15 15 7 13 29 31 17 24 23 20 22 24 28 30 30 30 28 27 28 28 26 24 25 28 30 32 34 37 36 35 35 36
25 26 17 19 19 21 23 26 6 2 2 3 10 16 13 10 8 16 18 17 15 25 30 26 24 26 27 25 22 20 20 19 20 22 26 29 31 33 34 36 37 36 34 34
16 13 23 28 31 28 23 22 10 5 4 3 9 12 11 14 18 13 16 15 16 17 18 16 15 14 15 15 15 15 15 16 19 23 27 29 30 31 31 33 34 34 35 32
12 9 22 22 23 25 22 21 12 5 6 3 7 5 7 8 13 18 14 12 14 11 13 12 9 8 10 9 9 10 14 20 24 27 29 29 29 31 32 32 34 32 32 32
13 11 19 22 17 20 20 22 14 9 4 2 4 4 5 7 17 13 12 9 6 6 4 3 6 9 10 11 13 18 24 27 33 33 33 33 33 34 32 32 32 32 30 29
19 13 16 25 25 29 23 24 10 13 5 4 4 3 5 9 11 10 9 10 7 7 7 10 13 13 14 21 24 27 31 39 39 38 38 38 39 38 39 36 31 30 30 29
24 13 22 25 20 29 24 23 24 15 7 5 4 5 9 9 9 9 10 9 8 8 12 13 15 20 27 27 33 37 32 31 32 35 37 39 40 40 41 38 33 32 31 31
22 15 15 12 17 23 30 26 28 17 10 12 8 6 17 12 10 9 8 8 11 12 16 18 19 24 29 34 31 30 31 33 34 35 37 40 42 42 42 43 42 41 39 37
22 24 14 13 14 25 27 25 29 21 14 12 10 16 21 15 8 8 12 12 14 17 21 27 28 27 27 28 29 30 31 33 35 37 40 41 42 44 45 45 44 44 44 46
19 21 15 15 16 21 31 34 29 29 19 17 17 18 21 19 19 16 18 21 23 26 27 25 26 27 29 31 33 35 36 38 40 42 44 45 48 50 49 48 49 49 48 48
17 14 22 18 16 13 23 25 30 28 26 21 17 23 23 22 19 20 24 25 24 25 25 27 29 30 30 32 35 37 39 41 41 42 44 47 49 51 53 55 55 54 54 52
13 19 13 8 13 12 9 18 21 24 23 24 28 24 27 26 22 22 22 26 26 24 25 27 29 31 32 34 37 37 37 37 37 37 38 40 42 47 51 54 56 57 57 55
12 17 12 11 13 1 8 14 19 18 16 18 21 21 20 21 23 24 25 24 23 24 27 31 32 31 31 34 35 37 39 40 41 42 42 42 44 45 46 48 51 54 57 57
13 17 8 8 11 3 11 17 17 20 20 20 24 25 23 24 26 23 22 23 25 27 29 31 32 34 37 38 39 40 41 42 42 43 44 45 47 48 50 52 53 53 54 56
9 12 9 11 6 7 7 14 17 16 16 21 23 24 26 25 21 21 21 22 25 27 29 32 36 37 37 38 38 39 40 41 43 45 45 46 47 47 50 51 53 55 55 56
13 11 12 11 8 8 13 14 16 18 11 19 22 24 23 21 20 20 23 24 27 31 35 35 36 36 37 37 38 39 42 43 45 47 48 49 50 52 54 56 56 57 58 59
9 10 11 11 8 9 5 14 14 13 19 12 8 10 15 18 22 25 26 28 31 33 36 35 35 33 34 37 41 43 46 50 52 54 56 58 59 60 62 64 63 62 60 60
9 10 6 10 5 6 6 12 11 17 20 19 20 19 20 22 24 25 28 30 31 34 33 34 35 34 36 39 44 50 53 56 59 61 63 65 66 66 65 64 61 58 55 56
12 12 16 15 15 14 13 12 11 14 17 19 22 25 25 24 23 26 28 30 31 32 32 34 36 38 41 45 48 54 59 63 66 67 65 64 64 63 62 60 58 56 55 54
14 16 17 19 15 9 14 19 21 21 22 23 24 25 24 25 26 27 28 28 28 32 35 38 43 48 52 55 58 61 62 63 63 62 62 62 62 61 61 58 56 54 53 53
17 20 21 14 9 10 11 15 16 19 19 19 21 24 25 27 27 24 26 29 33 37 43 46 51 55 57 58 59 60 60 60 61 61 61 62 62 61 60 59 58 54 51 49
Wind_Direction
190 195 213 213 195 198 206 195 185 178 175 179 181 165 184 205 213 215 215 214 221 226 236 243 249 255 262 272 282 285 289 291 288 287 290 293 295 295 296 299 301 305 306 305
193 201 200 203 205 192 194 196 185 188 192 195 184 180 191 183 183 200 214 214 220 229 236 243 250 258 267 272 276 284 287 286 286 285 283 285 287 289 293 295 296 297 297 296
201 202 191 191 186 200 192 183 191 198 197 203 209 216 198 197 197 192 197 212 220 232 245 253 261 264 261 262 269 274 277 278 283 286 289 288 287 289 290 288 287 289 289 291
196 186 194 186 189 190 170 194 200 197 192 203 208 253 213 195 202 219 217 221 227 235 240 248 254 261 265 270 273 276 278 281 281 282 284 284 285 285 286 283 285 287 286 285
188 174 174 199 187 191 182 166 190 206 202 186 220 233 239 226 211 239 230 234 222 231 241 248 255 259 262 266 270 275 278 283 287 289 288 290 291 291 290 290 291 291 288 285
174 164 174 193 173 185 165 159 166 164 167 199 194 202 230 209 236 240 230 231 231 257 256 252 252 255 265 270 273 273 274 279 281 282 286 288 292 294 294 294 294 294 291 287
151 165 153 165 163 180 169 157 106 85 183 223 183 204 226 176 190 212 229 240 236 245 253 259 258 260 263 263 267 270 274 279 286 292 296 300 301 301 299 298 298 296 292 288
149 167 159 160 176 174 178 169 139 159 179 189 176 207 236 219 224 223 210 221 220 238 243 245 243 252 261 266 271 280 292 305 312 310 306 303 302 300 299 300 299 297 291 287
157 137 170 175 176 171 173 184 174 103 115 138 195 192 141 166 206 225 233 238 241 241 240 252 258 258 261 271 286 297 305 309 311 309 305 301 299 301 301 302 301 297 292 287
184 130 179 174 194 200 193 181 166 188 117 207 219 187 188 182 203 219 235 250 242 218 198 196 225 245 259 278 296 302 305 304 304 301 299 297 298 299 302 305 303 300 297 293
171 188 170 190 198 196 184 192 185 187 180 152 152 164 148 192 185 211 213 224 213 180 204 236 250 272 298 304 303 305 303 305 301 299 297 296 299 299 299 300 295 292 292 293
174 184 162 184 198 206 212 203 202 189 181 168 128 145 116 159 168 190 197 200 223 236 245 271 287 291 305 311 303 298 297 297 297 298 300 302 302 302 300 293 285 281 281 284
158 170 139 176 200 194 198 198 202 209 197 186 166 167 151 140 162 170 193 213 235 264 283 292 298 296 286 284 288 289 291 293 293 293 293 295 297 297 296 294 292 286 282 279
178 167 183 185 199 193 196 183 196 198 196 172 188 169 163 160 176 227 250 264 270 267 277 281 277 275 275 279 285 291 293 294 295 296 298 297 294 293 292 289 287 286 285 284
169 168 179 154 174 195 204 201 199 206 207 200 173 161 178 202 217 245 253 255 264 272 277 274 275 279 284 289 293 296 298 300 300 300 296 293 293 295 295 293 292 289 285 283
185 146 155 138 155 180 197 202 206 210 212 215 187 201 214 232 248 265 269 273 279 282 282 286 291 295 297 299 302 304 303 301 300 299 297 296 294 292 291 293 296 297 296 293
149 154 150 128 150 164 195 201 210 219 228 229 232 244 252 258 255 257 264 272 276 282 290 295 300 304 307 308 308 308 310 312 311 310 309 307 303 299 297 295 293 293 293 294
174 170 159 150 152 148 207 200 211 218 231 234 239 237 233 243 252 259 266 277 292 299 301 303 307 309 309 310 312 313 311 308 307 306 305 303 301 300 299 298 296 295 294 295
176 176 153 158 190 213 194 203 200 201 211 211 220 228 235 246 254 264 280 290 295 299 303 306 308 309 309 308 308 306 305 305 307 308 307 307 304 301 297 296 294 295 293 292
206 204 192 171 177 190 199 201 210 209 228 224 230 238 245 252 263 281 288 289 292 292 294 298 300 302 304 305 307 308 310 311 312 311 310 308 307 305 301 299 297 294 293 291
201 206 210 208 226 234 210 204 206 202 226 230 234 241 253 268 277 284 289 291 292 294 297 297 300 303 304 308 310 311 310 310 310 310 309 308 306 304 302 299 298 296 292 290
205 201 204 211 226 264 232 218 220 232 238 247 259 282 284 284 286 288 289 290 293 295 291 295 301 305 308 308 311 311 310 310 309 309 309 308 307 306 304 303 301 299 295 290
220 216 218 214 217 208 210 224 236 241 248 258 268 268 280 280 275 280 284 291 294 292 297 300 305 312 311 312 311 310 309 308 308 309 310 309 308 307 307 306 305 302 297 290
240 228 231 235 233 227 225 238 237 241 245 255 269 279 284 285 289 289 292 293 295 297 302 309 313 312 310 310 310 310 310 310 310 311 312 311 309 309 308 307 306 303 298 294
257 242 250 249 235 239 233 241 253 259 266 272 280 285 286 288 288 292 290 291 302 309 311 314 315 315 314 313 313 312 313 313 313 313 312 312 311 310 308 308 308 306 302 298
258 247 241 253 255 246 241 240 250 256 266 272 276 281 281 284 287 290 301 308 312 316 317 318 317 314 313 314 314 315 315 314 314 313 312 311 310 310 310 309 306 304 302 299
Height
3103 3106 3107 3111 3116 3118 3124 3129 3131 3137 3142 3147 3146 3150 3155 3160 3162 3164 3167 3170 3174 3176 3180 3182 3183 3183 3186 3188 3188 3189 3189 3190 3190 3190 3189 3188 3187 3186 3185 3184 3183 3182 3180 3177
3101 3101 3106 3109 3113 3116 3120 3124 3130 3135 3138 3142 3143 3146 3151 3153 3156 3161 3164 3168 3170 3173 3177 3178 3180 3181 3183 3183 3184 3184 3185 3184 3184 3184 3184 3183 3181 3181 3180 3179 3177 3176 3174 3172
3097 3099 3103 3106 3110 3114 3117 3122 3128 3132 3136 3139 3141 3144 3147 3149 3153 3156 3161 3165 3168 3172 3173 3174 3175 3177 3177 3178 3179 3180 3180 3179 3178 3178 3176 3175 3174 3173 3173 3172 3170 3169 3167 3165
3093 3095 3101 3105 3109 3112 3115 3118 3125 3130 3135 3139 3142 3142 3143 3146 3150 3153 3158 3162 3166 3168 3169 3169 3170 3172 3173 3173 3174 3173 3173 3174 3173 3171 3170 3168 3166 3164 3162 3160 3160 3160 3158 3156
3090 3094 3099 3103 3107 3110 3114 3117 3122 3128 3131 3136 3139 3144 3139 3143 3143 3148 3152 3156 3159 3163 3164 3165 3166 3166 3166 3166 3166 3164 3165 3165 3165 3163 3161 3160 3157 3156 3153 3151 3150 3149 3149 3147
3088 3091 3098 3101 3105 3109 3113 3118 3123 3128 3132 3135 3134 3140 3137 3139 3141 3145 3146 3149 3154 3157 3159 3159 3162 3162 3160 3160 3159 3158 3159 3159 3159 3157 3155 3153 3151 3150 3147 3144 3144 3143 3141 3139
3082 3090 3096 3099 3104 3109 3112 3115 3124 3132 3132 3130 3129 3137 3134 3137 3138 3140 3142 3144 3147 3152 3156 3154 3154 3154 3154 3154 3154 3154 3154 3153 3153 3153 3151 3149 3146 3143 3140 3137 3135 3133 3133 3131
3080 3092 3091 3097 3100 3101 3109 3111 3114 3124 3129 3128 3130 3129 3130 3132 3135 3137 3138 3139 3141 3145 3147 3148 3147 3149 3150 3150 3150 3149 3150 3149 3147 3146 3145 3142 3139 3137 3134 3130 3128 3126 3122 3121
3079 3084 3089 3095 3100 3105 3107 3108 3114 3119 3123 3126 3127 3127 3129 3130 3131 3132 3135 3135 3137 3139 3141 3143 3144 3144 3145 3146 3146 3144 3144 3142 3140 3137 3136 3135 3131 3128 3127 3123 3119 3118 3116 3113
3077 3084 3088 3093 3102 3105 3103 3107 3113 3117 3125 3128 3124 3124 3125 3127 3127 3130 3131 3132 3132 3136 3138 3139 3139 3139 3141 3141 3141 3140 3137 3135 3132 3129 3128 3126 3124 3121 3119 3116 3113 3111 3108 3106
3076 3081 3089 3094 3100 3101 3098 3100 3106 3111 3114 3118 3125 3125 3124 3126 3127 3128 3129 3129 3130 3133 3135 3134 3132 3135 3138 3138 3136 3132 3130 3127 3124 3122 3121 3118 3115 3112 3110 3107 3106 3103 3100 3098
3075 3077 3083 3088 3093 3094 3096 3099 3104 3107 3111 3113 3116 3124 3124 3125 3125 3124 3126 3127 3129 3131 3130 3132 3133 3133 3132 3130 3129 3126 3122 3119 3118 3115 3112 3110 3108 3104 3102 3100 3097 3094 3091 3089
3071 3076 3083 3091 3092 3086 3087 3094 3102 3104 3107 3109 3114 3120 3123 3123 3123 3123 3124 3125 3127 3128 3130 3129 3128 3128 3127 3126 3122 3118 3116 3114 3110 3108 3105 3102 3098 3096 3094 3091 3090 3087 3084 3081
3067 3070 3073 3072 3069 3074 3083 3093 3099 3103 3106 3107 3110 3114 3119 3119 3119 3120 3121 3123 3124 3125 3126 3126 3125 3122 3119 3117 3115 3112 3110 3106 3103 3099 3096 3092 3089 3086 3082 3078 3076 3074 3071 3069
3064 3067 3070 3070 3073 3077 3084 3091 3096 3099 3103 3104 3109 3114 3119 3117 3116 3117 3119 3121 3122 3122 3119 3118 3116 3113 3111 3109 3106 3103 3100 3097 3095 3091 3087 3083 3079 3075 3071 3067 3064 3061 3058 3055
3060 3065 3068 3070 3075 3080 3084 3089 3092 3093 3099 3102 3105 3107 3116 3112 3112 3112 3112 3113 3113 3111 3110 3109 3106 3104 3102 3100 3096 3094 3091 3087 3083 3078 3074 3070 3066 3064 3060 3055 3052 3049 3046 3043
3062 3065 3068 3073 3077 3082 3086 3085 3088 3090 3095 3100 3101 3104 3109 3109 3107 3105 3103 3103 3103 3103 3102 3099 3096 3094 3091 3087 3084 3082 3079 3075 3071 3068 3065 3060 3054 3051 3047 3043 3038 3034 3031 3027
3064 3066 3069 3074 3078 3085 3080 3082 3085 3089 3092 3095 3096 3098 3099 3100 3099 3097 3096 3096 3097 3096 3093 3090 3087 3085 3082 3078 3075 3074 3071 3066 3061 3058 3055 3051 3046 3041 3036 3030 3025 3020 3016 3012
3064 3067 3069 3073 3075 3078 3077 3079 3082 3083 3087 3089 3090 3091 3092 3093 3093 3092 3092 3091 3090 3087 3085 3081 3078 3076 3074 3069 3067 3065 3061 3057 3052 3047 3042 3037 3032 3027 3022 3017 3013 3007 3001 2996
3063 3066 3069 3071 3072 3075 3074 3075 3078 3082 3082 3083 3084 3086 3086 3088 3090 3089 3088 3086 3084 3081 3078 3075 3074 3071 3067 3063 3059 3056 3050 3045 3041 3035 3031 3026 3020 3014 3009 3004 2998 2992 2987 2981
3061 3064 3066 3069 3069 3068 3069 3072 3075 3080 3080 3078 3080 3082 3084 3085 3084 3081 3080 3078 3075 3074 3072 3071 3067 3063 3059 3054 3050 3046 3039 3035 3031 3024 3018 3014 3007 3000 2995 2990 2984 2977 2971 2965
3060 3062 3063 3066 3067 3067 3065 3068 3072 3073 3071 3072 3075 3078 3079 3077 3075 3074 3073 3072 3070 3068 3067 3062 3058 3056 3050 3046 3040 3035 3029 3023 3018 3011 3006 3000 2993 2986 2979 2972 2965 2959 2952 2947
3058 3058 3058 3061 3061 3061 3062 3064 3066 3068 3069 3070 3073 3074 3072 3071 3071 3070 3070 3067 3064 3061 3057 3054 3050 3045 3043 3037 3030 3022 3017 3010 3004 2996 2990 2983 2975 2967 2960 2952 2945 2938 2933 2927
3052 3053 3053 3056 3057 3058 3060 3062 3063 3064 3065 3066 3067 3067 3066 3065 3065 3064 3063 3059 3057 3054 3048 3044 3040 3036 3032 3026 3021 3013 3003 2995 2987 2980 2973 2965 2957 2950 2943 2936 2929 2922 2916 2909
3049 3050 3049 3050 3053 3055 3056 3058 3059 3060 3061 3061 3061 3060 3060 3059 3059 3057 3056 3054 3049 3044 3039 3035 3029 3022 3017 3011 3005 2996 2988 2980 2973 2965 2957 2950 2942 2934 2927 2922 2914 2907 2902 2894
3043 3043 3045 3047 3049 3051 3052 3054 3054 3055 3056 3055 3055 3055 3055 3054 3053 3051 3047 3044 3039 3034 3028 3023 3018 3010 3004 2997 2989 2981 2973 2965 2958 2951 2944 2936 2928 2921 2913 2905 2900 2895 2888 2882